• In Belarus
  • List of Countries
  • For 7 days
  • Water Temperature
  • Satellite Maps
  • Weather Map
  • Weather Widgets
  • user-avatar
    Login

    Hourly Weather Capinota

    Today, 17 December, Sunday

    Time Temperature Precipitation Wind Pressure Humidity
    00:00 +19°C° 0 mm 2 mps 558 mmHg 56%
    01:00 +19°C° 0 mm 2 mps 558 mmHg 57%
    02:00 +18°C° 0 mm 2 mps 558 mmHg 58%
    03:00 +18°C° 0 mm 2 mps 558 mmHg 58%
    04:00 +18°C° 0 mm 1 mps 557 mmHg 59%
    05:00 +18°C° 0 mm 1 mps 557 mmHg 60%
    06:00 +19°C° 0 mm 1 mps 558 mmHg 54%
    07:00 +20°C° 0 mm 1 mps 559 mmHg 48%
    08:00 +20°C° 0 mm 2 mps 560 mmHg 43%
    09:00 +23°C° 0 mm 2 mps 560 mmHg 36%
    10:00 +25°C° 0 mm 2 mps 561 mmHg 30%
    11:00 +26°C° 0 mm 2 mps 562 mmHg 23%
    12:00 +27°C° 0 mm 2 mps 562 mmHg 22%
    13:00 +29°C° 0 mm 3 mps 561 mmHg 20%
    14:00 +30°C° 0 mm 4 mps 561 mmHg 18%
    15:00 +29°C° 0.1 mm 4 mps 561 mmHg 20%
    16:00 +29°C° 0.1 mm 5 mps 560 mmHg 21%
    17:00 +29°C° 0.1 mm 6 mps 560 mmHg 22%
    18:00 +27°C° 0 mm 6 mps 560 mmHg 29%
    19:00 +26°C° 0 mm 5 mps 560 mmHg 36%
    20:00 +23°C° 0 mm 5 mps 559 mmHg 43%
    21:00 +22°C° 0 mm 5 mps 560 mmHg 48%
    22:00 +21°C° 0 mm 5 mps 560 mmHg 53%
    23:00 +20°C° 0 mm 5 mps 560 mmHg 58%

    Tomorrow, 18 December, Monday

    Time Temperature Precipitation Wind Pressure Humidity
    00:00 +20°C° 0.1 mm 4 mps 560 mmHg 61%
    01:00 +19°C° 0.1 mm 4 mps 559 mmHg 65%
    02:00 +18°C° 0.1 mm 3 mps 559 mmHg 68%
    03:00 +18°C° 0.1 mm 3 mps 559 mmHg 71%
    04:00 +17°C° 0.1 mm 3 mps 559 mmHg 73%
    05:00 +17°C° 0.1 mm 3 mps 559 mmHg 75%
    06:00 +17°C° 0.1 mm 3 mps 560 mmHg 72%
    07:00 +17°C° 0.1 mm 3 mps 560 mmHg 69%
    08:00 +17°C° 0.1 mm 3 mps 561 mmHg 66%
    09:00 +18°C° 0.1 mm 3 mps 561 mmHg 62%
    10:00 +19°C° 0.1 mm 3 mps 562 mmHg 57%
    11:00 +20°C° 0.1 mm 3 mps 562 mmHg 53%
    12:00 +21°C° 0.1 mm 3 mps 562 mmHg 50%
    13:00 +22°C° 0.1 mm 4 mps 561 mmHg 47%
    14:00 +23°C° 0.1 mm 4 mps 561 mmHg 44%
    15:00 +22°C° 0.2 mm 4 mps 561 mmHg 46%
    16:00 +22°C° 0.2 mm 4 mps 560 mmHg 48%
    17:00 +22°C° 0.2 mm 4 mps 560 mmHg 50%
    18:00 +21°C° 0.1 mm 4 mps 560 mmHg 55%
    19:00 +20°C° 0.1 mm 4 mps 560 mmHg 60%
    20:00 +19°C° 0.1 mm 3 mps 560 mmHg 65%
    21:00 +18°C° 0 mm 3 mps 560 mmHg 67%
    22:00 +18°C° 0 mm 3 mps 560 mmHg 69%
    23:00 +17°C° 0 mm 2 mps 561 mmHg 71%

    Day after tomorrow, 19 December, Tuesday

    Time Temperature Precipitation Wind Pressure Humidity
    00:00 +17°C° 0 mm 2 mps 560 mmHg 71%
    01:00 +17°C° 0 mm 2 mps 560 mmHg 72%
    02:00 +16°C° 0 mm 1 mps 560 mmHg 73%
    03:00 +16°C° 0.1 mm 1 mps 559 mmHg 73%
    04:00 +16°C° 0.1 mm 1 mps 559 mmHg 73%
    05:00 +16°C° 0.1 mm 1 mps 559 mmHg 73%
    06:00 +16°C° 0 mm 1 mps 560 mmHg 71%
    07:00 +18°C° 0 mm 1 mps 560 mmHg 69%
    08:00 +18°C° 0 mm 1 mps 561 mmHg 67%
    09:00 +19°C° 0 mm 1 mps 561 mmHg 61%
    10:00 +20°C° 0 mm 2 mps 561 mmHg 55%
    11:00 +21°C° 0 mm 2 mps 562 mmHg 49%
    12:00 +22°C° 0.1 mm 3 mps 561 mmHg 46%
    13:00 +23°C° 0.1 mm 4 mps 561 mmHg 43%
    14:00 +25°C° 0.1 mm 5 mps 561 mmHg 41%
    15:00 +23°C° 0.2 mm 5 mps 560 mmHg 43%
    16:00 +23°C° 0.2 mm 5 mps 560 mmHg 46%
    17:00 +22°C° 0.2 mm 5 mps 559 mmHg 49%
    18:00 +21°C° 0.1 mm 5 mps 559 mmHg 53%
    19:00 +20°C° 0.1 mm 4 mps 559 mmHg 58%
    20:00 +19°C° 0.1 mm 4 mps 559 mmHg 63%
    21:00 +18°C° 0.1 mm 3 mps 559 mmHg 65%
    22:00 +18°C° 0.1 mm 3 mps 560 mmHg 66%
    23:00 +17°C° 0.1 mm 2 mps 560 mmHg 68%

    20 December, Wednesday

    Time Temperature Precipitation Wind Pressure Humidity
    00:00 +17°C° 0 mm 2 mps 559 mmHg 70%
    01:00 +18°C° 0 mm 1 mps 559 mmHg 71%
    02:00 +16°C° 0 mm 1 mps 558 mmHg 72%
    03:00 +16°C° 0 mm 1 mps 558 mmHg 73%
    04:00 +15°C° 0 mm 1 mps 558 mmHg 75%
    05:00 +14°C° 0 mm 0 mps 558 mmHg 76%
    06:00 +15°C° 0 mm 0 mps 558 mmHg 71%
    07:00 +16°C° 0 mm 0 mps 559 mmHg 66%
    08:00 +17°C° 0 mm 0 mps 560 mmHg 60%
    09:00 +20°C° 0 mm 1 mps 560 mmHg 54%
    10:00 +22°C° 0 mm 1 mps 561 mmHg 47%
    11:00 +23°C° 0 mm 2 mps 561 mmHg 40%
    12:00 +24°C° 0 mm 3 mps 560 mmHg 39%
    13:00 +25°C° 0 mm 3 mps 560 mmHg 38%
    14:00 +25°C° 0 mm 4 mps 559 mmHg 36%
    15:00 +25°C° 0 mm 4 mps 559 mmHg 38%
    16:00 +25°C° 0 mm 4 mps 558 mmHg 40%
    17:00 +25°C° 0 mm 4 mps 558 mmHg 41%
    18:00 +23°C° 0 mm 4 mps 558 mmHg 46%
    19:00 +21°C° 0 mm 4 mps 558 mmHg 50%
    20:00 +20°C° 0 mm 4 mps 558 mmHg 55%
    21:00 +20°C° 0 mm 3 mps 558 mmHg 57%
    22:00 +19°C° 0 mm 3 mps 558 mmHg 59%
    23:00 +19°C° 0 mm 2 mps 559 mmHg 61%

    21 December, Thursday

    Time Temperature Precipitation Wind Pressure Humidity
    00:00 +18°C° 0 mm 2 mps 558 mmHg 62%
    01:00 +18°C° 0 mm 2 mps 558 mmHg 64%
    02:00 +18°C° 0 mm 2 mps 557 mmHg 65%
    03:00 +17°C° 0 mm 2 mps 557 mmHg 66%
    04:00 +17°C° 0 mm 2 mps 557 mmHg 66%
    05:00 +17°C° 0 mm 2 mps 557 mmHg 66%
    06:00 +18°C° 0 mm 2 mps 558 mmHg 62%
    07:00 +18°C° 0 mm 2 mps 558 mmHg 58%
    08:00 +19°C° 0 mm 3 mps 559 mmHg 54%
    09:00 +21°C° 0 mm 3 mps 559 mmHg 49%
    10:00 +22°C° 0 mm 4 mps 560 mmHg 44%
    11:00 +25°C° 0 mm 4 mps 560 mmHg 39%
    12:00 +25°C° 0.1 mm 4 mps 560 mmHg 38%
    13:00 +26°C° 0.1 mm 5 mps 559 mmHg 36%
    14:00 +27°C° 0.1 mm 5 mps 559 mmHg 35%
    15:00 +26°C° 0 mm 5 mps 558 mmHg 37%
    16:00 +26°C° 0 mm 5 mps 558 mmHg 38%
    17:00 +26°C° 0 mm 5 mps 557 mmHg 40%
    18:00 +23°C° 0 mm 5 mps 557 mmHg 45%
    19:00 +22°C° 0 mm 4 mps 557 mmHg 51%
    20:00 +20°C° 0 mm 4 mps 557 mmHg 56%
    21:00 +20°C° 0 mm 4 mps 557 mmHg 59%
    22:00 +20°C° 0 mm 3 mps 558 mmHg 61%
    23:00 +19°C° 0 mm 3 mps 558 mmHg 63%

    22 December, Friday

    Time Temperature Precipitation Wind Pressure Humidity
    00:00 +19°C° 0.1 mm 3 mps 557 mmHg 64%
    01:00 +18°C° 0.1 mm 3 mps 557 mmHg 64%
    02:00 +18°C° 0.1 mm 3 mps 556 mmHg 65%
    03:00 +18°C° 0.1 mm 3 mps 556 mmHg 65%
    04:00 +18°C° 0.1 mm 2 mps 556 mmHg 65%
    05:00 +18°C° 0.1 mm 2 mps 556 mmHg 64%
    06:00 +18°C° 0.2 mm 2 mps 557 mmHg 64%
    07:00 +18°C° 0.2 mm 2 mps 557 mmHg 63%
    08:00 +18°C° 0.2 mm 2 mps 558 mmHg 62%
    09:00 +19°C° 0.2 mm 3 mps 558 mmHg 58%
    10:00 +20°C° 0.2 mm 3 mps 558 mmHg 55%
    11:00 +21°C° 0.2 mm 3 mps 558 mmHg 51%
    12:00 +22°C° 0.2 mm 4 mps 558 mmHg 48%
    13:00 +23°C° 0.2 mm 4 mps 557 mmHg 45%
    14:00 +23°C° 0.2 mm 4 mps 557 mmHg 42%
    15:00 +23°C° 0.1 mm 4 mps 557 mmHg 42%
    16:00 +25°C° 0.1 mm 4 mps 556 mmHg 42%
    17:00 +25°C° 0.1 mm 4 mps 556 mmHg 42%
    18:00 +22°C° 0.1 mm 4 mps 556 mmHg 48%
    19:00 +21°C° 0.1 mm 4 mps 556 mmHg 54%
    20:00 +20°C° 0.1 mm 4 mps 556 mmHg 59%
    21:00 +19°C° 0.3 mm 3 mps 556 mmHg 63%
    22:00 +19°C° 0.3 mm 3 mps 556 mmHg 66%
    23:00 +18°C° 0.3 mm 2 mps 556 mmHg 69%
    Show more